User: anonymous   Login
Location: Unspecified
(0.0000°N, 0.0000°E)
Time: 07:48:39
(UTC+00:00)
Language:

NOAA 2 - Orbit

View from above orbital plane
View from above orbital plane
View from above satellite
View from above satellite

Ground track
Ground track

The orbit data is extracted from the following two-line orbital elements,

1  6235U 72082A   18112.84545873 -.00000001 +00000-0 +27625-3 0  9999
2  6235 101.7330 078.4461 0004390 105.7193 307.5017 12.53102991082001
Epoch (UTC): 22 April 2018 20:17:27
Eccentricity: 0.0004390
inclination: 101.7330°
perigee height: 1448 km
apogee height: 1455 km
right ascension of ascending node: 78.4461°
argument of perigee: 105.7193°
revolutions per day: 12.53102991
mean anomaly at epoch: 307.5017°
orbit number at epoch: 8200

The dashed part of the orbit path shows where the satellite is in the earth's shadow,  

DLR